Flag for Canada Weather past 2 weeks in Halifax, Nova Scotia, Canada

23 °F

Passing clouds.

Feels Like: 13 °F
Forecast: 26 / 35 °F
Wind: 9 mph from Northwest

Location: Halifax International Airport

Current Time: Nov 25, 2015 at 8:48:39 AM

Latest Report: Nov 25, 2015 at 8:00 AM

Visibility: 15 mi

Pressure: 30.63 "Hg

Humidity: 80%

Dew point: 18 °F

Location of HalifaxLocation

Historic Weather in Halifax — Graph


Halifax temperature yesterday

Maximum temperature yesterday: 34 °F (at 12:00 AM)
Minimum temperature yesterday: 25 °F (at 8:00 PM)
Average temperature yesterday: 29 °F

Past Weeks' High & Low Weather Summary

High59 °F (Nov 23, 1:00 AM)100% (Nov 10, 7:00 AM)30.59 "Hg (Nov 10, 7:00 AM)
Low21 °F (Nov 25, 7:00 AM)51% (Nov 10, 2:00 PM)29.26 "Hg (Nov 13, 2:00 PM)
Average41 °F86%30.02 "Hg
* Reported Nov 10 7:00 AM — Nov 25 7:00 AM, Halifax, Weather by CustomWeather, © 2015

Note: Actual official high and low records may vary slightly from our data, if they occured in-between our weather recording intervals... More about our weather records


Halifax weather history for previous 24 hours

Time TempWeatherWind HumidityBarometerVisibility
7:00 AM
Wed, Nov 25
21 °FPassing clouds.9 mph86%30.59 "Hg15 mi
6:00 AM23 °FClear.8 mph80%30.55 "Hg15 mi
5:00 AM23 °FClear.7 mph80%30.52 "Hg15 mi
4:00 AM23 °FClear.8 mph80%30.47 "Hg15 mi
3:00 AM23 °FClear.9 mph74%30.45 "Hg15 mi
2:00 AM25 °FPassing clouds.8 mph69%30.42 "Hg15 mi
1:01 AM25 °FPassing clouds.10 mph74%30.39 "Hg15 mi
12:00 AM27 °FOvercast.16 mph69%30.36 "Hg15 mi
11:00 PM
Tue, Nov 24
27 °FSnow flurries. Overcast.12 mph69%30.34 "Hg15 mi
10:00 PM27 °FSnow flurries. Overcast.12 mph74%30.31 "Hg15 mi
9:00 PM27 °FSnow flurries. Overcast.12 mph74%30.28 "Hg15 mi
8:00 PM25 °FSnow flurries. Overcast.10 mph80%30.26 "Hg12 mi
7:00 PM27 °FSnow flurries. Overcast.15 mph80%30.23 "Hg10 mi
6:00 PM27 °FSnow flurries. Overcast.13 mph86%30.19 "Hg10 mi
5:00 PM27 °FSnow flurries. Overcast.13 mph80%30.15 "Hg12 mi
4:00 PM27 °FSnow flurries. Partly sunny.17 mph80%30.11 "Hg8 mi
3:00 PM28 °FSnow flurries. Partly sunny.16 mph74%30.09 "Hg8 mi
2:00 PM28 °FSnow flurries. Mostly cloudy.10 mph80%30.07 "Hg8 mi
1:00 PM28 °FSnow flurries. Overcast.13 mph74%30.06 "Hg15 mi
12:00 PM28 °FSnow flurries. Mostly cloudy.17 mph80%30.05 "Hg15 mi
11:00 AM28 °FSnow flurries. Mostly cloudy.15 mph86%30.04 "Hg15 mi
10:00 AM28 °FSnow flurries. Mostly cloudy.14 mph86%30.03 "Hg12 mi
9:00 AM28 °FOvercast.16 mph80%30.01 "Hg15 mi
8:00 AM28 °FMore clouds than sun.17 mph86%29.99 "Hg15 mi
Weather by CustomWeather, © 2015

See weather overviewHow to use our weather pages